Location: Chilton Park
(37.7711°N, 100.0276°W)
Time: 17:52:11
(UTC+00:00)

Cosmos 2227 Rocket - Pass Details

Date: 11 July 2022
Orbit: 840 x 844 km, 71.0° (Epoch: 18 August)

Event Time Altitude Azimuth Distance (km) Brightness Sun altitude
Exits shadow 08:27:56 39° 277° (W) 1,240 2.9 -25.5°
Maximum altitude 08:28:43 41° 298° (WNW) 1,200 2.9 -25.4°
Drops below altitude 10° 08:34:03 10° 8° (N) 2,469 5.5 -24.9°
Sets 08:36:39 0° 16° (NNE) 3,408 6.6 -24.7°
